Flag for United Kingdom Weather past 2 weeks in Haywards Heath, England, United Kingdom

Now
52 °F

Passing clouds.


Feels Like: 50 °F
Forecast: 49 / 58 °F
Wind: 6 mph from Southwest

Location: London / Gatwick Airport

Current Time: Oct 22, 2014 at 10:49:48 PM

Latest Report: Oct 22, 2014 at 10:20 PM


Visibility: N/A

Pressure: 30.24 "Hg

Humidity: 82%

Dew point: 46 °F

Location of Haywards HeathLocation

Historic Weather in Haywards Heath — Graph

°F

Haywards Heath temperature yesterday

Maximum temperature yesterday: 57 °F (at 2:20 AM)
Minimum temperature yesterday: 46 °F (at 11:50 PM)
Average temperature yesterday: 54 °F

Past Weeks' High & Low Weather Summary

 TemperatureHumidityPressure
High68 °F (Oct 18, 12:50 PM)100% (Oct 8, 5:20 AM)30.30 "Hg (Oct 8, 5:20 AM)
Low39 °F (Oct 12, 3:20 AM)48% (Oct 21, 3:20 PM)29.36 "Hg (Oct 8, 1:50 PM)
Average56 °F88%29.77 "Hg
* Reported Oct 7 9:20 PM — Oct 22 9:20 PM, Haywards Heath, Weather by CustomWeather, © 2014

Note: Actual official high and low records may vary slightly from our data, if they occured in-between our weather recording intervals... More about our weather records

Advertising

Haywards Heath weather history for previous 24 hours

 ConditionsComfort  
Time TempWeatherWind HumidityBarometerVisibility
9:20 PM
Oct 22
52 °FPassing clouds.6 mph82%30.24 "HgN/A
8:50 PM52 °FClear.5 mph82%30.24 "Hg10 mi
8:20 PM52 °FPassing clouds.5 mph82%30.24 "HgN/A
7:50 PM52 °FPassing clouds.7 mph82%30.24 "HgN/A
7:20 PM54 °FPassing clouds.7 mph77%30.24 "HgN/A
6:50 PM54 °FScattered clouds.7 mph77%30.27 "HgN/A
6:20 PM54 °FScattered clouds.8 mph72%30.27 "HgN/A
5:50 PM54 °FScattered clouds.12 mph72%30.24 "HgN/A
5:20 PM54 °FPassing clouds.7 mph72%30.24 "HgN/A
4:50 PM54 °FPassing clouds.6 mph72%30.24 "HgN/A
4:20 PM55 °FPassing clouds.7 mph67%30.27 "HgN/A
3:20 PM55 °FPassing clouds.9 mph63%30.27 "HgN/A
2:50 PM55 °FPassing clouds.10 mph63%30.27 "HgN/A
2:20 PM55 °FPassing clouds.12 mph63%30.27 "HgN/A
1:50 PM55 °FPassing clouds.12 mph63%30.27 "HgN/A
1:20 PM55 °FScattered clouds.13 mph63%30.30 "HgN/A
12:50 PM57 °FPassing clouds.10 mph63%30.27 "HgN/A
12:20 PM55 °FSunny.12 mph63%30.30 "Hg10 mi
11:50 AM54 °FSunny.10 mph67%30.30 "Hg10 mi
11:20 AM52 °FSunny.12 mph72%30.30 "Hg10 mi
10:50 AM50 °FSunny.10 mph76%30.30 "Hg10 mi
10:20 AM50 °FSunny.9 mph76%30.30 "Hg10 mi
9:50 AM46 °FSunny.10 mph82%30.30 "Hg10 mi
9:20 AM46 °FSunny.10 mph82%30.30 "Hg10 mi
8:50 AM45 °FSunny.9 mph87%30.30 "Hg10 mi
8:20 AM43 °FClear.8 mph87%30.27 "Hg10 mi
7:50 AM43 °FClear.10 mph87%30.27 "Hg10 mi
7:20 AM41 °FClear.10 mph93%30.27 "Hg10 mi
6:20 AM41 °FClear.8 mph87%30.24 "Hg10 mi
5:50 AM43 °FClear.10 mph81%30.24 "Hg10 mi
5:20 AM43 °FClear.9 mph81%30.24 "Hg10 mi
4:50 AM43 °FClear.8 mph81%30.24 "Hg10 mi
4:20 AM45 °FClear.10 mph76%30.24 "Hg10 mi
3:50 AM45 °FClear.10 mph76%30.24 "Hg10 mi
3:20 AM45 °FClear.12 mph76%30.24 "Hg10 mi
2:50 AM46 °FClear.14 mph66%30.21 "Hg10 mi
2:20 AM45 °FClear.14 mph71%30.21 "Hg10 mi
1:50 AM45 °FClear.10 mph71%30.21 "Hg10 mi
1:20 AM45 °FClear.12 mph71%30.18 "Hg10 mi
12:50 AM45 °FClear.12 mph71%30.18 "Hg10 mi
12:20 AM46 °FClear.12 mph66%30.15 "Hg10 mi
11:50 PM
Oct 21
46 °FClear.13 mph66%30.15 "Hg10 mi
11:20 PM48 °FPassing clouds.16 mph62%30.15 "HgN/A
10:50 PM48 °FPassing clouds.18 mph62%30.12 "HgN/A
10:20 PM48 °FClear.16 mph62%30.09 "Hg10 mi
Weather by CustomWeather, © 2014

See weather overviewHow to use our weather pages